Location: Kalberh�ni
(46.4610°N, 7.2453°E)
Time: 19:17:51
(UTC+00:00)

SL-14 R/B - Visible Passes

Search period start: 21 October 2021 00:00
Search period end: 31 October 2021 00:00
Orbit: 518 x 554 km, 82.4° (Epoch: 21 October)

Date Brightness Start Highest point End Pass type
(mag) Time Alt. Az. Time Alt. Az. Time Alt. Az.
21 Oct 4.8 04:26:15 10° SSE 04:29:55 38° E 04:33:35 10° NNE visible
22 Oct 4.8 04:17:32 10° SSE 04:21:12 37° E 04:24:50 10° NNE visible
23 Oct 4.9 04:08:50 10° SSE 04:12:28 37° E 04:16:05 10° NNE visible
24 Oct 4.9 04:00:08 10° SSE 04:03:44 36° E 04:07:19 10° NNE visible
25 Oct 4.9 03:51:25 10° SSE 03:55:00 35° E 03:58:34 10° NNE visible
25 Oct 4.6 05:28:25 10° WSW 05:31:16 19° WNW 05:34:07 10° NNW visible
26 Oct 4.9 03:42:43 10° SSE 03:46:16 34° E 03:49:49 10° NNE visible
26 Oct 4.6 05:19:38 10° WSW 05:22:31 19° WNW 05:25:24 10° NNW visible
27 Oct 4.9 03:34:00 10° SSE 03:37:32 33° E 03:41:04 10° NNE visible
27 Oct 4.6 05:10:52 10° WSW 05:13:47 20° WNW 05:16:41 10° NNW visible
28 Oct 4.9 03:27:35 26° SE 03:28:48 32° E 03:32:18 10° NNE visible
28 Oct 4.5 05:03:10 15° WSW 05:05:02 20° WNW 05:07:58 10° NNW visible
29 Oct 5.1 03:20:41 30° ENE 03:20:41 30° ENE 03:23:33 10° NNE visible
29 Oct 4.5 04:56:13 20° WNW 04:56:17 21° WNW 04:59:16 10° NNW visible
30 Oct 5.7 03:13:18 20° NE 03:13:18 20° NE 03:14:48 10° NNE visible
30 Oct 4.8 04:48:48 18° NW 04:48:48 18° NW 04:50:32 10° NNW visible
